Home > Weather > Bloomington > Past weeks

Flag for USA Past Weather in Bloomington, Illinois, USA — Yesterday and Last 2 Weeks

Now
84 °F

Thundershowers. Broken clouds.


Feels Like: 91 °F
Forecast: 70 / 84 °F
Wind: 7 mph from Southeast

Location: Bloomington / Normal

Current Time: Aug 29, 2016 at 2:56:18 PM

Latest Report: Aug 29, 2016 at 1:56 PM


Visibility: 10 mi

Pressure: 30.25 "Hg

Humidity: 72%

Dew Point: 74 °F

Location of BloomingtonLocation

Past Weather in Bloomington — Graph

°F

Bloomington Temperature Yesterday

Maximum temperature yesterday: 86 °F (at 2:56 PM)
Minimum temperature yesterday: 70 °F (at 9:56 PM)
Average temperature yesterday: 75 °F

High & Low Weather Summary for the Past Weeks

 TemperatureHumidityPressure
High86 °F (Aug 18, 2:56 PM)100% (Aug 14, 10:56 PM)30.29 "Hg (Aug 14, 10:56 PM)
Low56 °F (Aug 22, 5:56 AM)50% (Aug 16, 3:56 PM)29.72 "Hg (Aug 20, 10:56 AM)
Average73 °F83%30.09 "Hg
* Reported Aug 14 1:56 PM — Aug 29 1:00 PM, Bloomington, Weather by CustomWeather, © 2016

Note: Actual official high and low records may vary slightly from our data, if they occured in-between our weather recording intervals... More about our weather records

Advertising

Bloomington Weather History for the Previous 24 Hours

Scroll right to see more
 ConditionsComfort  
Time TempWeatherWind HumidityBarometerVisibility
1:00 PM
Mon, Aug 29
84 °FBroken clouds.10 mph70%30.24 "Hg9 mi
12:56 PM85 °FPartly sunny.8 mph72%30.27 "Hg9 mi
11:56 AM85 °FScattered clouds.5 mph72%30.28 "Hg10 mi
10:56 AM83 °FSunny.5 mph77%30.28 "Hg10 mi
9:56 AM79 °FSunny.3 mph82%30.28 "Hg10 mi
8:56 AM75 °FSunny.7 mph90%30.28 "Hg10 mi
7:56 AM71 °FSunny.3 mph90%30.27 "Hg10 mi
6:56 AM67 °FClear.3 mph97%30.26 "Hg10 mi
5:56 AM68 °FClear.3 mph93%30.23 "Hg10 mi
4:56 AM69 °FClear.3 mph93%30.22 "Hg10 mi
3:56 AM69 °FClear.3 mph93%30.23 "Hg10 mi
2:56 AM70 °FClear.3 mph90%30.21 "Hg10 mi
1:56 AM70 °FClear.6 mph90%30.21 "Hg10 mi
12:56 AM70 °FClear.6 mph97%30.23 "Hg10 mi
10:56 PM
Sun, Aug 28
70 °FClear.9 mph93%30.24 "Hg10 mi
9:56 PM70 °FClear.8 mph97%30.24 "Hg10 mi
8:56 PM71 °FClear.10 mph90%30.23 "Hg10 mi
7:56 PM73 °FSunny.No wind88%30.19 "Hg10 mi
6:56 PM73 °FSunny.5 mph88%30.18 "Hg10 mi
5:56 PM76 °FSunny.12 mph77%30.20 "Hg10 mi
4:56 PM74 °FThundershowers. Mostly cloudy.15 mph88%30.22 "Hg10 mi
3:56 PM77 °FThundershowers. Partly sunny.20 mph77%30.20 "Hg10 mi
2:56 PM86 °FPartly sunny.10 mph67%30.18 "Hg10 mi
Weather by CustomWeather, © 2016

See weather overviewHow to use our weather pages